Flag for U.S.A. Weather past 2 weeks in Leesburg, Virginia, U.S.A.

Now
54 °F

Clear.


Feels Like: 54 °F
Forecast: 42 / 69 °F
Wind: No wind

Location: Leesburg / Godfrey

Current Time: Oct 25, 2014 at 5:31:59 AM

Latest Report: Oct 25, 2014 at 4:55 AM


Visibility: 10 mi

Pressure: 29.96 "Hg

Humidity: 67%

Dew point: 43 °F

Location of LeesburgLocation

Historic Weather in Leesburg — Graph

°F

Leesburg temperature yesterday

Maximum temperature yesterday: 68 °F (at 3:55 PM)
Minimum temperature yesterday: 48 °F (at 11:55 PM)
Average temperature yesterday: 58 °F

Past Weeks' High & Low Weather Summary

 TemperatureHumidityPressure
High79 °F (Oct 14, 12:55 PM)100% (Oct 10, 7:35 PM)30.31 "Hg (Oct 10, 7:35 PM)
Low37 °F (Oct 20, 1:35 AM)38% (Oct 24, 4:15 PM)29.63 "Hg (Oct 18, 5:15 AM)
Average58 °F83%29.98 "Hg
* Reported Oct 10 4:15 AM — Oct 25 4:15 AM, Leesburg, Weather by CustomWeather, © 2014

Note: Actual official high and low records may vary slightly from our data, if they occured in-between our weather recording intervals... More about our weather records

Advertising

Leesburg weather history for previous 24 hours

 ConditionsComfort  
Time TempWeatherWind HumidityBarometerVisibility
4:15 AM
Oct 25
48 °FClear.10 mph82%29.97 "Hg10 mi
3:55 AM43 °FClear.7 mph93%29.97 "Hg10 mi
3:35 AM43 °FClear.5 mph93%29.98 "Hg10 mi
3:15 AM45 °FClear.No wind87%29.98 "Hg10 mi
2:55 AM43 °FClear.No wind93%29.98 "Hg10 mi
2:15 AM45 °FClear.No wind87%29.98 "Hg10 mi
1:55 AM46 °FClear.No wind82%29.98 "Hg10 mi
1:35 AM45 °FClear.No wind87%29.98 "Hg10 mi
1:15 AM46 °FClear.3 mph76%29.98 "Hg10 mi
12:55 AM48 °FClear.No wind76%29.98 "Hg10 mi
12:15 AM50 °FClear.5 mph71%29.98 "Hg10 mi
11:55 PM
Oct 24
48 °FClear.6 mph76%29.98 "Hg10 mi
11:15 PM52 °FClear.6 mph67%29.98 "Hg10 mi
10:55 PM54 °FClear.7 mph63%29.98 "Hg10 mi
10:35 PM54 °FClear.10 mph63%29.98 "Hg10 mi
10:15 PM55 °FClear.9 mph59%29.98 "Hg10 mi
9:55 PM57 °FClear.7 mph51%29.97 "Hg10 mi
9:15 PM59 °FClear.7 mph45%29.97 "Hg10 mi
8:55 PM55 °FClear.6 mph51%29.96 "Hg10 mi
8:35 PM57 °FClear.No wind48%29.96 "Hg10 mi
8:15 PM59 °FClear.9 mph45%29.96 "Hg10 mi
7:55 PM59 °FClear.7 mph45%29.96 "Hg10 mi
7:15 PM59 °FSunny.9 mph42%29.95 "Hg10 mi
6:55 PM61 °FSunny.8 mph39%29.95 "Hg10 mi
6:35 PM61 °FSunny.8 mph39%29.94 "Hg10 mi
6:15 PM63 °FSunny.10 mph39%29.94 "Hg10 mi
5:55 PM63 °FSunny.8 mph49%29.93 "Hg10 mi
5:15 PM63 °FSunny.8 mph52%29.93 "Hg10 mi
4:55 PM64 °FSunny.7 mph46%29.92 "Hg10 mi
4:35 PM66 °FSunny.8 mph43%29.92 "Hg10 mi
4:15 PM68 °FSunny.9 mph38%29.92 "Hg10 mi
3:55 PM68 °FSunny.13 mph40%29.92 "Hg10 mi
3:15 PM66 °FSunny.9 mph43%29.93 "Hg10 mi
2:55 PM66 °FSunny.12 mph40%29.93 "Hg10 mi
2:35 PM66 °FSunny.9 mph40%29.93 "Hg10 mi
2:15 PM66 °FSunny.14 mph40%29.94 "Hg10 mi
1:55 PM64 °FSunny.10 mph46%29.94 "Hg10 mi
1:35 PM64 °FSunny.15 mph49%29.95 "Hg10 mi
1:15 PM63 °FSunny.14 mph49%29.96 "Hg10 mi
12:55 PM63 °FSunny.18 mph52%29.97 "Hg10 mi
12:35 PM61 °FSunny.13 mph55%29.98 "Hg10 mi
12:15 PM61 °FSunny.15 mph59%29.99 "Hg10 mi
11:55 AM61 °FSunny.12 mph59%30.00 "Hg10 mi
11:35 AM59 °FSunny.12 mph63%30.00 "Hg10 mi
11:15 AM59 °FSunny.10 mph63%30.01 "Hg10 mi
10:55 AM61 °FSunny.15 mph59%30.02 "Hg10 mi
10:35 AM57 °FSunny.9 mph67%30.02 "Hg10 mi
10:15 AM55 °FSunny.14 mph72%30.02 "Hg10 mi
9:55 AM55 °FSunny.16 mph72%30.02 "Hg10 mi
9:35 AM55 °FSunny.15 mph72%30.02 "Hg10 mi
9:15 AM55 °FSunny.14 mph72%30.02 "Hg10 mi
8:55 AM55 °FSunny.12 mph72%30.02 "Hg10 mi
8:35 AM54 °FSunny.7 mph77%30.01 "Hg10 mi
8:15 AM54 °FClear.13 mph72%30.00 "Hg10 mi
7:55 AM52 °FClear.10 mph77%30.00 "Hg10 mi
7:35 AM52 °FClear.9 mph77%30.00 "Hg10 mi
7:15 AM52 °FClear.12 mph77%30.00 "Hg10 mi
6:55 AM52 °FClear.12 mph77%29.99 "Hg10 mi
6:35 AM52 °FClear.13 mph77%29.98 "Hg10 mi
6:15 AM52 °FClear.12 mph77%29.98 "Hg10 mi
5:55 AM52 °FClear.5 mph77%29.98 "Hg10 mi
5:15 AM54 °FClear.14 mph72%29.97 "Hg10 mi
Weather by CustomWeather, © 2014

See weather overviewHow to use our weather pages